Date String (YYYY-MM-DD hh:mm:ss) UTC,Instrument flags,absolute air pressure of the measurement (hPa),sample flow rate (lpm),inlet stack bypass flow (lpm),air temperature of the measurement (°C),ambient temperature measured by the external sensor (°C),aerosol sample conditioner tube jacket temperature (°C),OPC LED temperature (°C),internal box temperature (°C),relative humidity of the measurement (%),span deviation,mass concentration of particles derived from Lorenz-Mie calculation of OPC scattering (μg/m³),mass concentration of particles derived from Lorenz-Mie calculation of OPC scattering (μg/m³),mass concentration of particles derived from Lorenz-Mie calculation of OPC scattering (μg/m³)
DateTimeUTC,F1_M11,P_M11,Q1_M11,Q2_M11,T1_M11,T2_M11,T3_M11,T4_M11,T5_M11,U1_M11,ZSPAN_M11,X0_M11,X2_M11,X1_M11
2023-07-23 07:00:00,SystemResetWarning,0834.4,5.01,000.00,029.3,025.4,000.0,037.7,030.5,23.3,0000.0,0012.28,0007.47,0007.07
2023-07-23 07:01:00,SystemResetWarning,0834.4,5.00,000.00,029.2,025.7,000.0,037.7,030.5,23.5,0000.0,0011.82,0007.47,0007.08
2023-07-23 07:02:00,SystemResetWarning,0834.5,5.00,000.00,029.2,026.1,000.0,037.7,030.6,23.5,0000.0,0011.86,0007.48,0007.10
2023-07-23 07:03:00,SystemResetWarning,0834.4,4.99,000.00,029.2,026.5,000.0,037.7,030.6,23.6,0000.0,0012.20,0007.48,0007.10
2023-07-23 07:04:00,SystemResetWarning,0834.4,5.00,000.00,029.2,026.8,000.0,037.7,030.7,23.6,0000.0,0011.76,0007.46,0007.10
2023-07-23 07:05:00,SystemResetWarning,0834.5,5.00,000.00,029.2,027.1,000.0,037.7,030.7,23.7,0000.0,0011.63,0007.45,0007.10
2023-07-23 07:06:00,SystemResetWarning,0834.5,5.00,000.00,029.2,027.3,000.0,037.7,030.8,23.7,0000.0,0011.52,0007.45,0007.09
2023-07-23 07:07:00,SystemResetWarning,0834.4,4.99,000.00,029.3,027.5,000.0,037.7,030.8,23.6,0000.0,0011.39,0007.47,0007.10
2023-07-23 07:08:00,SystemResetWarning,0834.4,4.99,000.00,029.3,027.7,000.0,037.7,030.9,23.5,0000.0,0011.58,0007.50,0007.10
2023-07-23 07:09:00,SystemResetWarning,0834.4,5.01,000.00,029.3,027.8,000.0,037.7,030.9,23.5,0000.0,0011.37,0007.49,0007.10
2023-07-23 07:10:00,SystemResetWarning,0834.4,5.01,000.00,029.3,027.9,000.0,037.8,030.9,23.8,0000.1,0011.49,0007.51,0007.09
2023-07-23 07:11:00,SystemResetWarning,0834.4,5.01,000.00,029.3,028.0,000.0,037.8,031.0,23.6,0001.9,0011.58,0007.53,0007.10
2023-07-23 07:12:00,SystemResetWarning,0834.4,5.01,000.00,029.4,028.1,000.0,037.8,031.0,23.2,0001.9,0011.64,0007.53,0007.10
2023-07-23 07:13:00,SystemResetWarning,0834.4,5.00,000.00,029.4,028.1,000.0,037.8,031.0,24.1,0002.0,0011.77,0007.56,0007.10
2023-07-23 07:14:00,SystemResetWarning,0834.3,5.00,000.00,029.4,028.2,000.0,037.8,031.1,23.1,0001.5,0011.68,0007.60,0007.11
2023-07-23 07:15:00,SystemResetWarning,0834.3,4.99,000.00,029.5,028.2,000.0,037.9,031.1,22.8,0001.6,0011.68,0007.66,0007.13
2023-07-23 07:16:00,SystemResetWarning,0834.3,5.00,000.00,029.5,028.3,000.0,037.9,031.1,23.3,0001.7,0011.68,0007.66,0007.15
2023-07-23 07:17:00,SystemResetWarning,0834.3,5.00,000.00,029.5,028.3,000.0,037.9,031.1,22.7,0001.8,0011.88,0007.70,0007.17
2023-07-23 07:18:00,SystemResetWarning,0834.4,5.00,000.00,029.5,028.4,000.0,037.9,031.2,22.6,0001.8,0011.79,0007.69,0007.18
2023-07-23 07:19:00,SystemResetWarning,0834.4,5.00,000.00,029.6,028.4,000.0,037.9,031.2,22.7,0001.9,0011.20,0007.68,0007.19
2023-07-23 07:20:00,SystemResetWarning,0834.4,5.01,000.00,029.6,028.4,000.0,038.0,031.2,22.8,0001.0,0011.10,0007.70,0007.21
2023-07-23 07:21:00,SystemResetWarning,0834.4,5.00,000.00,029.6,028.4,000.0,038.0,031.3,22.6,0000.8,0011.98,0007.71,0007.23
2023-07-23 07:22:00,SystemResetWarning,0834.5,4.99,000.00,029.6,026.7,000.0,037.9,031.1,22.7,0000.2,0012.49,0007.72,0007.25
2023-07-23 07:23:00,SystemResetWarning,0834.3,5.01,000.00,029.5,025.3,000.0,037.8,030.9,22.6,0000.2,0012.95,0007.73,0007.26
2023-07-23 07:24:00,SystemResetWarning,0834.2,5.01,000.00,029.4,025.2,000.0,037.7,030.7,22.7,0000.3,0012.77,0007.72,0007.25
2023-07-23 07:25:00,SystemResetWarning,0834.2,4.99,000.00,029.3,025.5,000.0,037.8,030.6,22.9,0000.2,0012.69,0007.69,0007.25
2023-07-23 07:26:00,SystemResetWarning,0834.2,4.99,000.00,029.3,025.9,000.0,037.8,030.6,22.8,0000.0,0012.69,0007.66,0007.24
2023-07-23 07:27:00,SystemResetWarning,0834.2,5.00,000.00,029.3,026.3,000.0,037.8,030.6,22.8,0000.0,0012.60,0007.65,0007.24
2023-07-23 07:28:00,SystemResetWarning,0834.3,5.00,000.00,029.3,026.7,000.0,037.8,030.7,22.8,0000.0,0012.34,0007.62,0007.23
2023-07-23 07:29:00,SystemResetWarning,0834.5,5.01,000.00,029.3,027.0,000.0,037.8,030.7,22.8,0000.0,0012.40,0007.64,0007.23
2023-07-23 07:30:00,SystemResetWarning,0834.4,5.00,000.00,029.3,027.2,000.0,037.8,030.8,22.8,0000.0,0012.44,0007.66,0007.22
2023-07-23 07:31:00,SystemResetWarning,0834.3,4.99,000.00,029.3,027.4,000.0,037.8,030.8,23.0,0000.0,0012.46,0007.66,0007.23
2023-07-23 07:32:00,SystemResetWarning,0834.6,5.00,000.00,029.3,027.6,000.0,037.8,030.9,23.0,0000.0,0011.75,0007.66,0007.23
2023-07-23 07:33:00,SystemResetWarning,0834.4,5.00,000.00,029.3,027.7,000.0,037.8,030.9,22.8,0000.0,0010.96,0007.60,0007.20
2023-07-23 07:34:00,SystemResetWarning,0834.6,5.00,000.00,029.3,027.9,000.0,037.8,030.9,22.6,0000.0,0010.33,0007.58,0007.20
2023-07-23 07:35:00,SystemResetWarning,0834.3,5.00,000.00,029.4,028.0,000.0,037.8,031.0,22.5,0000.0,0010.32,0007.58,0007.21
2023-07-23 07:36:00,SystemResetWarning,0834.2,5.00,000.00,029.4,028.0,000.0,037.8,031.0,22.5,0000.0,0010.25,0007.56,0007.20
2023-07-23 07:37:00,SystemResetWarning,0834.3,5.00,000.00,029.4,028.1,000.0,037.8,031.0,22.4,0000.0,0010.16,0007.56,0007.22
2023-07-23 07:38:00,SystemResetWarning,0834.2,5.01,000.00,029.4,028.2,000.0,037.9,031.1,22.4,0000.3,0010.16,0007.56,0007.22
2023-07-23 07:39:00,SystemResetWarning,0834.2,5.01,000.00,029.5,028.2,000.0,037.9,031.1,22.3,0001.5,0010.98,0007.58,0007.22
2023-07-23 07:40:00,SystemResetWarning,0834.2,5.00,000.00,029.5,028.3,000.0,037.9,031.1,22.2,0001.6,0011.02,0007.58,0007.23
2023-07-23 07:41:00,SystemResetWarning,0834.2,5.00,000.00,029.5,028.3,000.0,037.9,031.2,22.2,0001.0,0011.04,0007.55,0007.22
2023-07-23 07:42:00,SystemResetWarning,0834.2,5.00,000.00,029.5,028.4,000.0,037.9,031.2,22.1,0000.9,0011.01,0007.55,0007.22
2023-07-23 07:43:00,SystemResetWarning,0834.2,5.00,000.00,029.6,028.4,000.0,038.0,031.2,22.0,0000.7,0011.03,0007.56,0007.22
2023-07-23 07:44:00,SystemResetWarning,0834.2,5.00,000.00,029.6,028.4,000.0,038.0,031.3,22.0,0000.9,0011.07,0007.59,0007.24
2023-07-23 07:45:00,SystemResetWarning,0834.2,5.01,000.00,029.6,028.5,000.0,038.0,031.3,21.8,0000.6,0011.11,0007.60,0007.24
2023-07-23 07:46:00,SystemResetWarning,0834.2,5.00,000.00,029.7,028.4,000.0,038.0,031.3,21.7,0000.0,0011.01,0007.57,0007.23
2023-07-23 07:47:00,SystemResetWarning,0834.2,4.99,000.00,029.7,026.9,000.0,037.9,031.2,21.7,0000.0,0011.61,0007.59,0007.24
2023-07-23 07:48:00,SystemResetWarning,0834.2,5.01,000.00,029.6,025.4,000.0,037.8,030.9,21.8,0000.0,0012.33,0007.60,0007.24
2023-07-23 07:49:00,SystemResetWarning,0834.1,5.01,000.00,029.5,025.2,000.0,037.8,030.6,22.0,0000.0,0012.55,0007.62,0007.24
2023-07-23 07:50:00,SystemResetWarning,0834.1,4.99,000.00,029.3,025.5,000.0,037.8,030.5,22.8,0000.0,0012.10,0007.62,0007.23
2023-07-23 07:51:00,SystemResetWarning,0834.2,4.99,000.00,029.3,025.9,000.0,037.8,030.5,22.9,0000.0,0011.87,0007.60,0007.22
2023-07-23 07:52:00,SystemResetWarning,0834.1,5.00,000.00,029.3,026.3,000.0,037.8,030.6,22.8,0000.0,0011.79,0007.61,0007.23
2023-07-23 07:53:00,SystemResetWarning,0834.1,5.01,000.00,029.3,026.7,000.0,037.8,030.7,23.1,0000.0,0011.77,0007.60,0007.23
2023-07-23 07:54:00,SystemResetWarning,0834.1,5.01,000.00,029.3,027.0,000.0,037.8,030.7,22.8,0000.0,0011.70,0007.56,0007.21
2023-07-23 07:55:00,SystemResetWarning,0834.1,4.99,000.00,029.3,027.2,000.0,037.8,030.8,22.5,0000.8,0011.78,0007.55,0007.21
2023-07-23 07:56:00,SystemResetWarning,0834.1,4.99,000.00,029.3,027.4,000.0,037.8,030.8,22.0,0000.6,0011.80,0007.54,0007.21
2023-07-23 07:57:00,SystemResetWarning,0834.1,4.99,000.00,029.3,027.6,000.0,037.8,030.9,21.8,0000.6,0011.81,0007.55,0007.21
2023-07-23 07:58:00,SystemResetWarning,0834.2,5.00,000.00,029.3,027.7,000.0,037.8,030.9,21.8,0000.3,0011.72,0007.56,0007.22
2023-07-23 07:59:00,SystemResetWarning,0834.1,5.00,000.00,029.3,027.8,000.0,037.8,030.9,22.2,0000.9,0010.74,0007.55,0007.21
